Driggs, ID

9:03 PM MDT on October 17, 2017 (GMT -0600)
Driggs

Weather History for KDIJ - July, 2013

Change the Weather History Date:

Sunday, July 14, 2013

  Actual Average (KJAC) Record (KJAC)
Temperature  
Mean Temperature 65 °F -  
Max Temperature 84 °F 79 °F 93 °F (2002)
Min Temperature 46 °F 38 °F 29 °F (1977)
Growing Degree Days 15 (Base 50)    
Moisture  
Dew Point 41 °F    
Average Humidity 40    
Maximum Humidity 74    
Minimum Humidity 19    
Precipitation  
Precipitation 0.00 in - - ()
Sea Level Pressure  
Sea Level Pressure 30.05 in    
Wind  
Wind Speed 7 mph (South)    
Max Wind Speed 20 mph    
Max Gust Speed 25 mph    
Visibility 10 miles    
Events Thunderstorm    
Averages and records for this station are not official NWS values.
T = Trace of Precipitation, MM = Missing Value Source: NWS Daily Summary

Daily Weather History Graph

Daily Weather History Graph

Search for Another Location

Airport or City:

Trip Planner

Search our weather history database for the weather conditions in past years. The results will help you decide how hot, cold, wet, or windy it might be!

Date:

Astronomy

Jul. 14, 2013 Rise Set
Actual Time 5:55 AM MDT 9:04 PM MDT
Civil Twilight 5:21 AM MDT 9:39 PM MDT
Nautical Twilight 4:36 AM MDT 10:23 PM MDT
Astronomical Twilight 3:42 AM MDT 11:17 PM MDT
Moon 12:30 PM MDT (7/14) No Moon Set
Length of Visible Light 16h 18m
Length of Day
15h 08m
Waxing Crescent, 35% of the Moon is Illuminated
Jul 14
Waxing Crescent
Jul 15
First Quarter
Jul 22
Full
Jul 29
Last Quarter
Aug 6
New

Hourly Weather History & Observations

Time (MDT) Temp. Dew Point Humidity Pressure Visibility Wind Dir Wind Speed Gust Speed Precip Events Conditions
12:56 AM 54.0 °F 43.9 °F 69% 30.01 in 10.0 mi East 5.8 mph - N/A   Clear
1:56 AM 50.9 °F 43.0 °F 74% 30.02 in 10.0 mi SE 3.5 mph - N/A   Clear
2:56 AM 50.0 °F 41.0 °F 71% 30.02 in 10.0 mi ESE 5.8 mph - N/A   Clear
3:56 AM 46.9 °F 38.8 °F 73% 30.04 in 10.0 mi ESE 6.9 mph - N/A   Clear
4:56 AM 48.9 °F 37.9 °F 66% 30.03 in 10.0 mi ENE 6.9 mph - N/A   Clear
5:56 AM 52.9 °F 39.9 °F 61% 30.02 in 10.0 mi NE 6.9 mph - N/A   Clear
6:56 AM 52.0 °F 41.0 °F 66% 30.04 in 10.0 mi WSW 3.5 mph - N/A   Clear
7:56 AM 61.0 °F 45.9 °F 58% 30.01 in 10.0 mi ESE 4.6 mph - N/A   Clear
8:56 AM 66.9 °F 41.9 °F 40% 30.03 in 10.0 mi West 4.6 mph - N/A   Clear
9:56 AM 72.0 °F 38.8 °F 30% 30.02 in 10.0 mi Variable 3.5 mph - N/A   Partly Cloudy
10:56 AM 77.0 °F 43.9 °F 31% 30.02 in 10.0 mi WSW 5.8 mph - N/A   Clear
11:56 AM 77.9 °F 45.9 °F 32% 30.02 in 10.0 mi South 6.9 mph - N/A   Clear
12:43 PM 80.6 °F 39.2 °F 23% 30.28 in 10.0 mi SSW 9.2 mph - N/A   Partly Cloudy
12:56 PM 81.9 °F 38.8 °F 22% 30.01 in 10.0 mi WSW 9.2 mph - N/A   Partly Cloudy
1:05 PM 82.4 °F 39.2 °F 21% 30.28 in 10.0 mi South 13.8 mph 17.3 mph N/A   Scattered Clouds
1:56 PM 82.9 °F 41.9 °F 23% 30.01 in 10.0 mi SSW 12.7 mph 24.2 mph N/A   Mostly Cloudy
2:30 PM 82.4 °F 39.2 °F 21% 30.26 in 10.0 mi WSW 16.1 mph - N/A   Mostly Cloudy
2:48 PM 84.2 °F 39.2 °F 20% 30.25 in 10.0 mi West 5.8 mph - N/A   Scattered Clouds
2:56 PM 83.8 °F 38.8 °F 20% 29.99 in 10.0 mi SW 10.4 mph 19.6 mph N/A   Partly Cloudy
3:48 PM 78.8 °F 37.4 °F 23% 30.25 in 10.0 mi SE 12.7 mph 25.3 mph N/A   Scattered Clouds
3:56 PM 81.9 °F 41.0 °F 23% 29.99 in 10.0 mi South 13.8 mph 19.6 mph N/A   Partly Cloudy
4:14 PM 82.4 °F 41.0 °F 23% 30.23 in 10.0 mi South 12.7 mph - N/A Thunderstorm Clear
4:29 PM 84.2 °F 39.2 °F 20% 30.23 in 10.0 mi SSW 12.7 mph - N/A   Clear
4:56 PM 83.8 °F 36.9 °F 19% 29.97 in 10.0 mi SSW 19.6 mph 25.3 mph N/A   Clear
5:56 PM 79.0 °F 43.0 °F 28% 29.98 in 10.0 mi South 17.3 mph - N/A   Partly Cloudy
6:56 PM 79.9 °F 41.9 °F 26% 29.97 in 10.0 mi SSW 12.7 mph - N/A   Partly Cloudy
7:56 PM 77.9 °F 45.9 °F 32% 29.93 in 10.0 mi South 8.1 mph - N/A   Clear
8:56 PM 68.0 °F 43.9 °F 42% 29.94 in 10.0 mi SSE 6.9 mph - N/A   Clear
9:56 PM 63.9 °F 45.0 °F 50% 29.94 in 10.0 mi South 3.5 mph - N/A   Clear
10:56 PM 56.8 °F 41.0 °F 55% 29.95 in 10.0 mi Calm Calm - N/A   Clear
11:56 PM 52.9 °F 43.9 °F 71% 29.96 in 10.0 mi East 4.6 mph - N/A   Clear